2020-03-19 00:08:17 r, 00.00m,0000563400Hz,0000000000c,0000000.000s, 018.3C,00002195
2020-03-19 00:18:17 r, 00.00m,0000563334Hz,0000000000c,0000000.000s, 018.3C,00002195
2020-03-19 00:28:18 r, 00.00m,0000563247Hz,0000000000c,0000000.000s, 018.3C,00002195
2020-03-19 00:38:17 r, 00.00m,0000563289Hz,0000000000c,0000000.000s, 018.3C,00002195
2020-03-19 00:48:18 r, 00.00m,0000563256Hz,0000000000c,0000000.000s, 018.0C,00002195
2020-03-19 00:58:17 r, 00.00m,0000563211Hz,0000000000c,0000000.000s, 018.0C,00002195
2020-03-19 01:08:20 r, 00.00m,0000563240Hz,0000000000c,0000000.000s, 018.0C,00002195
2020-03-19 01:18:17 r, 00.00m,0000563197Hz,0000000000c,0000000.000s, 017.4C,00002195
2020-03-19 01:28:20 r, 00.00m,0000563175Hz,0000000000c,0000000.000s, 017.4C,00002195
2020-03-19 01:38:17 r, 00.00m,0000563181Hz,0000000000c,0000000.000s, 017.0C,00002195
2020-03-19 01:48:17 r, 00.00m,0000563016Hz,0000000000c,0000000.000s, 017.4C,00002195
2020-03-19 01:58:18 r, 00.00m,0000562933Hz,0000000000c,0000000.000s, 016.7C,00002195
2020-03-19 02:08:17 r, 00.00m,0000563012Hz,0000000000c,0000000.000s, 016.4C,00002195
2020-03-19 02:18:17 r, 00.00m,0000562849Hz,0000000000c,0000000.000s, 015.7C,00002195
2020-03-19 02:28:17 r, 00.00m,0000562701Hz,0000000000c,0000000.000s, 015.4C,00002195
2020-03-19 02:38:20 r, 00.00m,0000562670Hz,0000000000c,0000000.000s, 015.1C,00002195
2020-03-19 02:48:17 r, 00.00m,0000562611Hz,0000000000c,0000000.000s, 014.8C,00002195
2020-03-19 02:58:19 r, 00.00m,0000562606Hz,0000000000c,0000000.000s, 014.5C,00002195
2020-03-19 03:08:18 r, 00.00m,0000562493Hz,0000000000c,0000000.000s, 014.5C,00002195
2020-03-19 03:18:19 r, 00.00m,0000562508Hz,0000000000c,0000000.000s, 014.1C,00002195
2020-03-19 03:28:17 r, 00.00m,0000562362Hz,0000000000c,0000000.000s, 013.8C,00002195
2020-03-19 03:38:17 r, 00.00m,0000562376Hz,0000000000c,0000000.000s, 013.2C,00002195
2020-03-19 03:48:17 r, 00.00m,0000562298Hz,0000000000c,0000000.000s, 013.2C,00002195
2020-03-19 03:58:20 r, 00.00m,0000489472Hz,0000000000c,0000000.000s, 012.5C,00002195
2020-03-19 04:08:18 r, 05.94m,0000375059Hz,0000000000c,0000000.000s, 012.2C,00002195
2020-03-19 04:18:17 r, 06.37m,0000251189Hz,0000000000c,0000000.000s, 011.2C,00002195
2020-03-19 04:28:18 r, 06.94m,0000149141Hz,0000000000c,0000000.000s, 010.6C,00002195
2020-03-19 04:38:17 r, 07.81m,0000067086Hz,0000000000c,0000000.000s, 010.3C,00002195
2020-03-19 04:48:17 r, 09.12m,0000020129Hz,0000000000c,0000000.000s, 009.6C,00002195
2020-03-19 04:58:18 r, 10.85m,0000004072Hz,0000000000c,0000000.000s, 009.0C,00002195
2020-03-19 05:08:20 r, 12.81m,0000000668Hz,0000000000c,0000000.000s, 009.0C,00002195
2020-03-19 05:18:17 r, 14.97m,0000000091Hz,0000005098c,0000000.011s, 008.7C,00002195
2020-03-19 05:28:17 r, 16.69m,0000000019Hz,0000024648c,0000000.053s, 008.7C,00002195
2020-03-19 05:38:20 r, 17.51m,0000000009Hz,0000052661c,0000000.114s, 008.3C,00002195
2020-03-19 05:48:17 r, 17.83m,0000000006Hz,0000070283c,0000000.153s, 008.3C,00002195
2020-03-19 05:58:20 r, 17.91m,0000000006Hz,0000076766c,0000000.167s, 008.0C,00002195
2020-03-19 06:08:17 r, 17.94m,0000000006Hz,0000078650c,0000000.171s, 008.0C,00002195
2020-03-19 06:18:17 r, 17.94m,0000000006Hz,0000078723c,0000000.171s, 007.7C,00002195
2020-03-19 06:28:20 r, 17.96m,0000000006Hz,0000080382c,0000000.174s, 007.7C,00002195
2020-03-19 06:38:18 r, 17.96m,0000000006Hz,0000079778c,0000000.173s, 007.4C,00002195
2020-03-19 06:48:17 r, 17.97m,0000000005Hz,0000080645c,0000000.175s, 007.4C,00002195
2020-03-19 06:58:18 r, 17.99m,0000000005Hz,0000081966c,0000000.178s, 007.4C,00002195
2020-03-19 07:08:17 r, 18.00m,0000000006Hz,0000082567c,0000000.179s, 007.0C,00002195
2020-03-19 07:18:17 r, 18.00m,0000000006Hz,0000082541c,0000000.179s, 007.0C,00002195
2020-03-19 07:28:17 r, 18.01m,0000000005Hz,0000083300c,0000000.181s, 006.7C,00002195
2020-03-19 07:38:17 r, 18.00m,0000000006Hz,0000082611c,0000000.179s, 006.7C,00002195
2020-03-19 07:48:18 r, 18.00m,0000000005Hz,0000082768c,0000000.180s, 006.7C,00002195
2020-03-19 07:58:17 r, 18.01m,0000000006Hz,0000083398c,0000000.181s, 006.4C,00002195
2020-03-19 08:08:18 r, 18.00m,0000000006Hz,0000082940c,0000000.180s, 006.4C,00002195
2020-03-19 08:18:17 r, 18.01m,0000000006Hz,0000083457c,0000000.181s, 006.4C,00002195
2020-03-19 08:28:20 r, 18.01m,0000000005Hz,0000083496c,0000000.181s, 006.1C,00002195
2020-03-19 08:38:18 r, 18.01m,0000000006Hz,0000083737c,0000000.182s, 006.1C,00002195
2020-03-19 08:48:17 r, 18.02m,0000000006Hz,0000084331c,0000000.183s, 005.8C,00002195
2020-03-19 08:58:17 r, 18.02m,0000000005Hz,0000084222c,0000000.183s, 005.8C,00002195
2020-03-19 09:08:19 r, 18.01m,0000000005Hz,0000083779c,0000000.182s, 005.8C,00002195
2020-03-19 09:18:17 r, 18.03m,0000000005Hz,0000084491c,0000000.183s, 005.4C,00002195
2020-03-19 09:28:17 r, 18.03m,0000000005Hz,0000084541c,0000000.183s, 005.4C,00002195
2020-03-19 09:38:20 r, 18.03m,0000000006Hz,0000085325c,0000000.185s, 005.4C,00002195
2020-03-19 09:48:17 r, 18.03m,0000000005Hz,0000085443c,0000000.185s, 005.4C,00002195
2020-03-19 09:58:19 r, 18.03m,0000000006Hz,0000085503c,0000000.186s, 005.1C,00002195
2020-03-19 10:08:17 r, 18.03m,0000000006Hz,0000085439c,0000000.185s, 005.1C,00002195
2020-03-19 10:18:17 r, 18.03m,0000000005Hz,0000085486c,0000000.186s, 005.1C,00002195
2020-03-19 10:28:20 r, 18.04m,0000000006Hz,0000085563c,0000000.186s, 005.1C,00002195
2020-03-19 10:38:18 r, 18.04m,0000000005Hz,0000085550c,0000000.186s, 004.8C,00002195
2020-03-19 10:48:17 r, 18.05m,0000000005Hz,0000086340c,0000000.187s, 004.8C,00002195
2020-03-19 10:58:20 r, 18.05m,0000000005Hz,0000086412c,0000000.188s, 004.8C,00002195
2020-03-19 11:08:17 r, 18.05m,0000000005Hz,0000086408c,0000000.188s, 004.8C,00002195
2020-03-19 11:18:17 r, 18.06m,0000000005Hz,0000087122c,0000000.189s, 004.8C,00002195
2020-03-19 11:28:18 r, 18.06m,0000000006Hz,0000087138c,0000000.189s, 004.8C,00002195
2020-03-19 11:38:17 r, 18.05m,0000000005Hz,0000086775c,0000000.188s, 004.8C,00002195
2020-03-19 11:48:18 r, 18.06m,0000000005Hz,0000087439c,0000000.190s, 004.8C,00002195
2020-03-19 11:58:17 r, 18.06m,0000000006Hz,0000087438c,0000000.190s, 004.5C,00002195
2020-03-19 12:08:20 r, 18.06m,0000000005Hz,0000087366c,0000000.190s, 004.5C,00002195
2020-03-19 12:18:17 r, 18.07m,0000000006Hz,0000088095c,0000000.191s, 004.5C,00002195
2020-03-19 12:28:20 r, 18.07m,0000000006Hz,0000088194c,0000000.191s, 004.5C,00002195
2020-03-19 12:38:17 r, 18.07m,0000000005Hz,0000088150c,0000000.191s, 004.5C,00002195
2020-03-19 12:48:17 r, 18.06m,0000000005Hz,0000087638c,0000000.190s, 004.5C,00002195
2020-03-19 12:58:17 r, 18.06m,0000000005Hz,0000087945c,0000000.191s, 004.1C,00002195
2020-03-19 13:08:17 r, 18.06m,0000000005Hz,0000088007c,0000000.191s, 004.1C,00002195
2020-03-19 13:18:17 r, 18.07m,0000000005Hz,0000088126c,0000000.191s, 004.1C,00002195
2020-03-19 13:28:17 r, 18.06m,0000000005Hz,0000087695c,0000000.190s, 004.1C,00002195
2020-03-19 13:38:19 r, 18.07m,0000000006Hz,0000088157c,0000000.191s, 003.8C,00002195
2020-03-19 13:48:17 r, 18.06m,0000000006Hz,0000087446c,0000000.190s, 003.8C,00002195
2020-03-19 13:58:17 r, 18.06m,0000000005Hz,0000087426c,0000000.190s, 003.8C,00002195
2020-03-19 14:08:20 r, 18.05m,0000000006Hz,0000086614c,0000000.188s, 003.8C,00002195
2020-03-19 14:18:17 r, 18.05m,0000000006Hz,0000086448c,0000000.188s, 003.8C,00002195
2020-03-19 14:28:17 r, 18.05m,0000000006Hz,0000087037c,0000000.189s, 003.8C,00002195
2020-03-19 14:38:17 r, 18.05m,0000000005Hz,0000086347c,0000000.187s, 003.5C,00002195
2020-03-19 14:48:17 r, 18.05m,0000000005Hz,0000086332c,0000000.187s, 003.5C,00002195
2020-03-19 14:58:17 r, 18.03m,0000000006Hz,0000084807c,0000000.184s, 003.5C,00002195
2020-03-19 15:08:18 r, 17.97m,0000000005Hz,0000080657c,0000000.175s, 003.5C,00002195
2020-03-19 15:18:17 r, 17.89m,0000000006Hz,0000074803c,0000000.162s, 003.5C,00002195
2020-03-19 15:28:17 r, 17.61m,0000000008Hz,0000057597c,0000000.125s, 003.2C,00002195
2020-03-19 15:38:17 r, 16.86m,0000000016Hz,0000029000c,0000000.063s, 003.2C,00002195
2020-03-19 15:48:17 r, 15.29m,0000000067Hz,0000006791c,0000000.015s, 003.2C,00002195
2020-03-19 15:58:17 r, 13.15m,0000000488Hz,0000000000c,0000000.000s, 002.9C,00002195
2020-03-19 16:08:18 r, 11.15m,0000003083Hz,0000000000c,0000000.000s, 002.9C,00002195
2020-03-19 16:18:17 r, 09.38m,0000015816Hz,0000000000c,0000000.000s, 002.9C,00002195
2020-03-19 16:28:17 r, 08.01m,0000055819Hz,0000000000c,0000000.000s, 002.5C,00002195
2020-03-19 16:38:17 r, 07.09m,0000130064Hz,0000000000c,0000000.000s, 002.5C,00002195
2020-03-19 16:48:17 r, 06.48m,0000227372Hz,0000000000c,0000000.000s, 002.2C,00002195
2020-03-19 16:58:17 r, 06.08m,0000328308Hz,0000000000c,0000000.000s, 002.2C,00002195
2020-03-19 17:08:17 r, 00.00m,0000426659Hz,0000000000c,0000000.000s, 002.2C,00002195
2020-03-19 17:18:17 r, 00.00m,0000519026Hz,0000000000c,0000000.000s, 002.2C,00002195
2020-03-19 17:28:17 r, 00.00m,0000560974Hz,0000000000c,0000000.000s, 002.2C,00002195
2020-03-19 17:38:18 r, 00.00m,0000560983Hz,0000000000c,0000000.000s, 002.5C,00002195
2020-03-19 17:48:20 r, 00.00m,0000560995Hz,0000000000c,0000000.000s, 002.9C,00002195
2020-03-19 17:58:18 r, 00.00m,0000560967Hz,0000000000c,0000000.000s, 003.2C,00002195
2020-03-19 18:08:17 r, 00.00m,0000561179Hz,0000000000c,0000000.000s, 004.1C,00002195
2020-03-19 18:18:17 r, 00.00m,0000561463Hz,0000000000c,0000000.000s, 005.8C,00002195
2020-03-19 18:28:17 r, 00.00m,0000561624Hz,0000000000c,0000000.000s, 007.4C,00002195
2020-03-19 18:38:17 r, 00.00m,0000561871Hz,0000000000c,0000000.000s, 008.7C,00002195
2020-03-19 18:48:18 r, 00.00m,0000562024Hz,0000000000c,0000000.000s, 009.9C,00002195
2020-03-19 18:58:17 r, 00.00m,0000562252Hz,0000000000c,0000000.000s, 011.2C,00002195
2020-03-19 19:08:20 r, 00.00m,0000562193Hz,0000000000c,0000000.000s, 012.2C,00002195
2020-03-19 19:18:17 r, 00.00m,0000562414Hz,0000000000c,0000000.000s, 012.8C,00002195
2020-03-19 19:28:17 r, 00.00m,0000562565Hz,0000000000c,0000000.000s, 013.5C,00002195
2020-03-19 19:38:18 r, 00.00m,0000562703Hz,0000000000c,0000000.000s, 014.5C,00002195
2020-03-19 19:48:19 r, 00.00m,0000562829Hz,0000000000c,0000000.000s, 015.4C,00002195
2020-03-19 19:58:17 r, 00.00m,0000562969Hz,0000000000c,0000000.000s, 015.7C,00002195
2020-03-19 20:08:19 r, 00.00m,0000563029Hz,0000000000c,0000000.000s, 016.7C,00002195
2020-03-19 20:18:17 r, 00.00m,0000563191Hz,0000000000c,0000000.000s, 017.4C,00002195
2020-03-19 20:28:17 r, 00.00m,0000563210Hz,0000000000c,0000000.000s, 018.3C,00002195
2020-03-19 20:38:18 r, 00.00m,0000563325Hz,0000000000c,0000000.000s, 019.0C,00002195
2020-03-19 20:48:17 r, 00.00m,0000563448Hz,0000000000c,0000000.000s, 019.6C,00002195
2020-03-19 20:58:18 r, 00.00m,0000563504Hz,0000000000c,0000000.000s, 019.9C,00002195
2020-03-19 21:08:17 r, 00.00m,0000563594Hz,0000000000c,0000000.000s, 020.6C,00002195
2020-03-19 21:18:18 r, 00.00m,0000563666Hz,0000000000c,0000000.000s, 021.2C,00002195
2020-03-19 21:28:17 r, 00.00m,0000563840Hz,0000000000c,0000000.000s, 021.9C,00002195
2020-03-19 21:38:18 r, 00.00m,0000563870Hz,0000000000c,0000000.000s, 022.5C,00002195
2020-03-19 21:48:17 r, 00.00m,0000563908Hz,0000000000c,0000000.000s, 022.8C,00002195
2020-03-19 21:58:17 r, 00.00m,0000563981Hz,0000000000c,0000000.000s, 023.2C,00002195
2020-03-19 22:08:18 r, 00.00m,0000564012Hz,0000000000c,0000000.000s, 023.2C,00002195
2020-03-19 22:18:17 r, 00.00m,0000564037Hz,0000000000c,0000000.000s, 023.8C,00002195
2020-03-19 22:28:17 r, 00.00m,0000563870Hz,0000000000c,0000000.000s, 023.5C,00002195
2020-03-19 22:38:17 r, 00.00m,0000563955Hz,0000000000c,0000000.000s, 022.5C,00002195
2020-03-19 22:48:20 r, 00.00m,0000563891Hz,0000000000c,0000000.000s, 022.5C,00002195
2020-03-19 22:58:17 r, 00.00m,0000563761Hz,0000000000c,0000000.000s, 022.2C,00002195
2020-03-19 23:08:20 r, 00.00m,0000563809Hz,0000000000c,0000000.000s, 022.5C,00002195
2020-03-19 23:18:18 r, 00.00m,0000563881Hz,0000000000c,0000000.000s, 022.8C,00002195
2020-03-19 23:28:17 r, 00.00m,0000563923Hz,0000000000c,0000000.000s, 023.2C,00002195
2020-03-19 23:38:17 r, 00.00m,0000563931Hz,0000000000c,0000000.000s, 023.2C,00002195
2020-03-19 23:48:18 r, 00.00m,0000563986Hz,0000000000c,0000000.000s, 023.2C,00002195
2020-03-19 23:58:17 r, 00.00m,0000563921Hz,0000000000c,0000000.000s, 022.8C,00002195
